Flag for U.S.A. Weather past 2 weeks in Salina, Kansas, U.S.A.

35 °F

Passing clouds.

Feels Like: 28 °F
Forecast: 25 / 38 °F
Wind: 9 mph from Southwest

Location: Salina Municipal Airport

Current Time: Nov 30, 2015 at 6:57:35 PM

Latest Report: Nov 30, 2015 at 5:53 PM

Visibility: 10 mi

Pressure: 29.96 "Hg

Humidity: 82%

Dew point: 30 °F

Location of SalinaLocation

Historic Weather in Salina — Graph


Salina temperature yesterday

Maximum temperature yesterday: 34 °F (at 2:53 PM)
Minimum temperature yesterday: 31 °F (at 1:50 AM)
Average temperature yesterday: 32 °F

Past Weeks' High & Low Weather Summary

High68 °F (Nov 23, 1:53 PM)93% (Nov 17, 2:53 AM)30.58 "Hg (Nov 17, 2:53 AM)
Low24 °F (Nov 22, 6:53 AM)19% (Nov 22, 1:53 PM)29.31 "Hg (Nov 17, 2:53 PM)
Average43 °F71%30.03 "Hg
* Reported Nov 15 5:53 PM — Nov 30 5:53 PM, Salina, Weather by CustomWeather, © 2015

Note: Actual official high and low records may vary slightly from our data, if they occured in-between our weather recording intervals... More about our weather records


Salina weather history for previous 24 hours

Time TempWeatherWind HumidityBarometerVisibility
5:53 PM
Mon, Nov 30
35 °FPassing clouds.9 mph82%29.96 "Hg10 mi
4:53 PM36 °FOvercast.12 mph82%29.97 "Hg10 mi
3:53 PM37 °FPartly sunny.10 mph79%29.96 "Hg10 mi
3:04 PM38 °FBroken clouds.13 mph76%29.93 "Hg10 mi
2:53 PM38 °FBroken clouds.15 mph76%29.96 "Hg10 mi
1:53 PM36 °FMore clouds than sun.13 mph82%29.97 "Hg10 mi
1:00 PM36 °FMostly cloudy.13 mph82%29.96 "Hg9 mi
11:53 AM36 °FCloudy.10 mph82%30.01 "Hg10 mi
10:53 AM35 °FMostly cloudy.8 mph85%30.03 "Hg10 mi
9:53 AM34 °FFog.9 mph88%30.05 "Hg3 mi
8:53 AM33 °FMostly cloudy.7 mph92%30.04 "Hg10 mi
8:03 AM33 °FFog.5 mph92%30.02 "Hg3 mi
8:00 AM33 °FFog.5 mph92%30.02 "Hg2 mi
7:00 AM33 °FMostly cloudy.No wind92%30.03 "Hg8 mi
5:53 AM33 °FLight freezing rain. Fog.6 mph92%30.05 "Hg3 mi
4:53 AM33 °FLight freezing rain. Mostly cloudy.6 mph92%30.05 "Hg8 mi
3:53 AM33 °FLight rain. Low clouds.5 mph88%30.07 "Hg7 mi
2:53 AM33 °FLight rain. Fog.3 mph92%30.10 "Hg5 mi
1:53 AM33 °FLow clouds.5 mph92%30.12 "Hg9 mi
12:53 AM33 °FLight rain. Low clouds.5 mph92%30.14 "Hg7 mi
11:53 PM
Sun, Nov 29
33 °FLight rain. Fog.7 mph92%30.15 "Hg5 mi
10:53 PM33 °FLight rain. Fog.5 mph92%30.19 "Hg5 mi
9:53 PM33 °FFog.3 mph92%30.18 "Hg5 mi
9:03 PM33 °FFog.8 mph92%30.15 "Hg2 mi
8:53 PM33 °FFog.7 mph92%30.19 "Hg2 mi
7:53 PM33 °FLow clouds.6 mph92%30.21 "Hg7 mi
6:53 PM33 °FLow clouds.5 mph88%30.20 "Hg10 mi
Weather by CustomWeather, © 2015

See weather overviewHow to use our weather pages